Regional Weather Roundup
Issued by NWS

Home | Current Version | Previous Version | Graphics & Text | Print | Product List | Glossary On
Versions: 1 2 3 4 5 6 7 8 9 10 11 12 13 14 15 16 17 18 19 20 21 22 23 24 25 26 27 28 29 30 31 32 33 34 35 36 37 38 39 40 41 42 43 44 45 46 47 48 49 50
000
ASUS45 KSLC 250910
RWRUT

UTAH REGIONAL WEATHER ROUNDUP
NATIONAL WEATHER SERVICE SALT LAKE CITY UT
200 AM MST TUE NOV 25 2014

UTZ001>011-023>025-251000-

NORTHERN UTAH

CITY           SKY/WX    TMP DP  RH WIND       PRES   REMARKS
HILL AFB       CLOUDY    29  19  65 SE6       30.38F WCI  23
LOGAN          CLOUDY    27  23  85 NE6       30.36F WCI  20
OGDEN          CLOUDY    28  19  69 S8        30.38F WCI  20
PROVO AIRPORT  PTCLDY    23  18  80 SE6       30.44F WCI  16
SALT LAKE CITY PTCLDY    32  19  58 SE12      30.39F WCI  23
VERNAL         PTCLDY    18   9  68 W6        30.33F WCI  10
WENDOVER       CLOUDY    28  19  69 CALM      30.40S
HEBER CITY     PTCLDY    18  14  86 CALM      30.41F
WEST JORDAN    CLEAR     30  25  80 S17       30.40F WCI  18

$$

UTZ012>022-026-027-251000-

SOUTHERN/CENTRAL UTAH

CITY           SKY/WX    TMP DP  RH WIND       PRES   REMARKS
BLANDING       CLEAR     23   7  49 N6        30.47R WCI  16
BRYCE CANYON   CLEAR      9   3  77 VRB3      30.44F
CEDAR CITY     PTCLDY    15   9  76 CALM      30.46S
DELTA          CLEAR     22  16  77 S6        30.45S WCI  15
MILFORD        CLEAR     18  11  74 S8        30.46F WCI   8
MOAB/CYNLANDS  CLEAR     22   8  55 CALM      30.41S
PRICE          CLEAR     18   8  65 NE5       30.37F WCI  11
ST GEORGE      MOSUNNY   34   7  32 SE6       30.50S WCI  29
KANAB          CLEAR     19   1  45 NE5       30.51R WCI  13

$$

REGIONAL REPORTS     COLORADO/ARIZONA

CITY           SKY/WX    TMP DP  RH WIND       PRES   REMARKS
CRAIG, CO      CLOUDY    12   7  80 CALM      30.32S
GRAND JUNCTION PTCLDY    21  16  81 SE9       30.41R WCI  11
RIFLE          MOCLDY    13   9  84 E5        30.42S WCI   5
MONTROSE       CLEAR     17  11  77 SE8       30.42F WCI   7
CORTEZ         CLEAR     14   9  80 E6        30.40S WCI   5
PAGE, AZ       NOT AVBL
GRAND CANYON   MOCLDY     7  -9  48 CALM      30.46R
KINGMAN        CLEAR     37   3  24 E8        30.45R WCI  31
FLAGSTAFF      PTCLDY    27  -1  30 E9        30.41R WCI  18

$$

REGIONAL REPORTS    NEVADA/IDAHO/WYOMING

CITY           SKY/WX    TMP DP  RH WIND       PRES   REMARKS
LAS VEGAS, NV  CLEAR     46  11  24 SW8       30.42R
ELY            PTCLDY    15  15 100 S10       30.47R WCI   2
ELKO           MOCLDY    28  23  81 CALM      30.42F
POCATELLO, ID  CLOUDY    38  22  52 S20G29    30.26F WCI  28
BURLEY         CLOUDY    38  23  55 SW14      30.28F WCI  30
EVANSTON, WY   MOCLDY    21  12  68 SW18      30.28F WCI   6
ROCK SPRINGS   CLOUDY    23  10  57 SW16G29   30.22F WCI  10

$$


USA.gov is the U.S. government's official web portal to all federal, state and local government web resources and services.